CZ-4 DEB, 26306

Orbit data source: Space-Track

CZ-4 DEB, 26306 is space debris in SSO originally from a launch on Thu, 14 Oct 1999 UTC launched from the Taiyaun Space Center, China (TSC). Debris objects in space refer to the collection of defunct objects orbiting the Earth. Examples of debris include non-operational satellites, rocket bodies, and fragments generated from explosions, collisions, or faulty payload assembly.

Loading next visibility...
Identifier
26306, 1999-057GP
Orbit
SSO
Country
Flag of CNCN / PRC
Related business
Manufacturer
Unknown
Mission
Spacecraft
Bus & Motor
Unknown
Mass
Unknown
Launch date (UTC)
1999-10-14 (26 years ago)
Launch vehicle
Unknown
Launch site
Taiyaun Space Center, China (TSC)
Object type
Payload
Rocket body
Debris
Shape & HBR
Unknown shape, 0.1 m
Radar Cross Section
Small (<0.1 m²)

Expand to show TLE details & history
Last TLE update: 2 days ago

TLE from 2 days ago
0 CZ-4 DEB
1 26306U 99057GP  25295.04923759  .00000574  00000-0  19525-3 0  9990
2 26306  98.7795 333.4406 0095946 190.3109 228.9749 14.37981956339046
Epoch: 2025-10-22T01:10Z
TLE epoch observation values (Epoch: 2025-10-22T01:10:54.127Z)
Latitude
57.48461°
Longitude
-88.95892°
Altitude
820.171 km
Speed
7.425 km/s
True Right ascension
21h 17m 58s
True Declination
57° 19' 48"
Sunlit
Object was in daylight at epoch
Visualization orbit readout
Latitude
Unknown
Longitude
Unknown
Altitude
Unknown
Speed
Unknown
Apparent Right ascension
Unknown
Apparent Declination
Unknown
Sunlit
N/A
Visualization observer readout
Local Sidereal Time
02:12:03
Azimuth
Unknown
Elevation
Unknown
Doppler factor
Unknown
Orbital elements
Apogee altitude
830.821 km
Perigee altitude
693.802 km
Semi-major axis
7,140.448 km
Eccentricity
0.00959
Inclination
98.7795°
RAAN
333.4406°
Arg. of periapsis
190.3109°
True anomaly
228.15195°
Mean anomaly
228.9749°
Eccentric anomaly
228.56278°
Mean motion
3.59712 °/min
Orbital period
100.08 mins
BSTAR
0.00019525
Loading maneuver chart data...
Computing Atmospheric mass density...

Documentation

Showing up to 5 results
|